Weather in Aksai

Uzbekistan     37°49′40″N   67°34′42″E
temp.,
°C
wind,
m/s
gust,
m/s
humid.,
%
clouds,
%
prec.,
mm/h
press.,
hPa
HPBL,
m
8 march, mon
mon823:00+10ne23570 0.0 101928
02:00+9nne34590 0.0 101946
05:00+9ne345925 0.0 101946
08:00+10ne3356100 0.0 102080
11:00+15ne2241100 0.0 1021547
14:00+18ene123096 0.0 10191152
17:00+19se012698 0.0 10181245
20:00+14sw223895 0.0 101823
9 march, tue
tue923:00+12wsw114963 0.0 101823
02:00+13ne344198 0.0 101644
05:00+12ne5103799 0.0 1014170
08:00+13ne5937100 0.0 1013206
11:00+19ne7923100 0.0 1012554
14:00+23ene6618100 0.0 10091363
17:00+23nne3522100 0.0 1007552
20:00+18nne2231100 0.0 100827
10 march, wed
wed1023:00+17ene5935100 0.1 1009202
02:00+15ne6104895 0.3 1011203
05:00+13ne6105748 0.3 1012178
08:00+11ese356449 0.0 1015190
11:00+16se454775 0.0 1015563
14:00+19se3338100 0.0 1014861
17:00+19se3237100 0.0 1012826
20:00+16ssw3647100 0.0 1012183
11 march, thu
thu1123:00+15ssw71148100 0.1 1014479
02:00+12sw91267100 0.4 1016653
05:00+11sw91276100 1.8 1019635
08:00+11sw7963100 0.0 1022607
11:00+12ssw995492 0.0 1023632
14:00+15s544326 0.0 10211258
17:00+15e344014 0.0 10191483
20:00+11ne696247 0.0 1018315
12 march, fri
fri1223:00+10ne696873 0.0 1016256
02:00+9ne4766100 0.0 1013181
05:00+8nne346163 0.0 101168
08:00+10nne344524 0.0 1010114
11:00+18ene462352 0.0 1009535
14:00+22ene2319100 0.0 1007962
17:00+22e2323100 0.0 1005537
20:00+17ne3433100 0.0 100569